FW2784 Weather Reports


time (UTC)temp
C
wind
direction
speed
KPH
gust
KPH
rain 1hr
cm
rain 24hr
cm
rain mn
cm
humidity
%
barometer
mb
20260502210501 20 204 11.3 25.7 0.00 0.13 0.05 40 1015.6
20260502210002 20 244 9.7 20.9 0.00 0.13 0.05 36 1015.6
20260502205459 20 248 8.0 20.9 0.00 0.13 0.05 35 1015.8
20260502205000 20 144 8.0 16.1 0.00 0.13 0.05 36 1015.8
20260502204500 20 168 9.7 24.1 0.00 0.13 0.05 38 1015.8
20260502203959 20 240 9.7 24.1 0.00 0.13 0.05 36 1015.7
20260502203500 20 211 9.7 24.1 0.00 0.13 0.05 36 1015.8
20260502203000 20 15 9.7 22.5 0.00 0.13 0.05 36 1015.8
20260502202500 20 234 11.3 22.5 0.00 0.13 0.05 36 1015.8
20260502201500 20 163 8.0 19.3 0.00 0.13 0.05 35 1015.8
20260502200959 20 266 8.0 19.3 0.00 0.13 0.05 35 1015.7
20260502200459 20 164 9.7 20.9 0.00 0.13 0.05 37 1015.8
20260502200000 20 274 11.3 25.7 0.00 0.13 0.05 37 1015.7
20260502195500 19 242 11.3 20.9 0.00 0.13 0.05 37 1015.8
20260502195000 19 221 9.7 22.5 0.00 0.13 0.05 37 1015.8
20260502194000 19 210 11.3 29.0 0.00 0.13 0.05 39 1015.8
20260502193500 20 236 9.7 29.0 0.00 0.13 0.05 38 1015.8
20260502192459 20 15 8.0 25.7 0.00 0.13 0.05 40 1015.9
20260502191000 20 179 6.4 16.1 0.00 0.13 0.05 39 1015.8
20260502190459 20 153 6.4 17.7 0.00 0.13 0.05 40 1015.9
20260502190000 19 203 8.0 17.7 0.00 0.13 0.05 39 1015.9
20260502185500 19 198 8.0 17.7 0.00 0.13 0.05 41 1016.0
20260502185000 19 196 9.7 24.1 0.00 0.13 0.05 40 1016.0
20260502183500 18 175 9.7 20.9 0.00 0.13 0.05 40 1016.1
20260502182959 18 5 11.3 25.7 0.00 0.13 0.05 39 1016.2
20260502182459 18 184 11.3 25.7 0.00 0.13 0.05 42 1016.3
20260502181500 18 224 9.7 22.5 0.00 0.13 0.05 41 1016.1
20260502181001 18 155 8.0 19.3 0.00 0.13 0.05 42 1016.2
20260502180500 18 191 9.7 24.1 0.00 0.13 0.05 45 1016.3
20260502164000 15 209 9.7 25.7 0.00 0.13 0.05 55 1016.7
20260502163501 16 240 9.7 19.3 0.00 0.13 0.05 55 1016.7
20260502163001 16 184 8.0 16.1 0.00 0.13 0.05 56 1016.8
20260502162001 16 200 8.0 14.5 0.00 0.13 0.05 57 1016.7
20260502161501 15 181 8.0 16.1 0.00 0.13 0.05 57 1016.6
20260502161001 15 268 8.0 16.1 0.00 0.13 0.05 58 1016.6
20260502151501 14 158 6.4 12.9 0.00 0.13 0.05 65 1016.3
20260502151001 13 236 6.4 16.1 0.00 0.13 0.05 67 1016.2
20260502130459 11 202 4.8 8.0 0.00 0.13 0.05 87 1014.9
20260502123500 10 221 3.2 9.7 0.00 0.13 0.05 89 1014.7
20260502122500 10 220 3.2 8.0 0.00 0.13 0.05 91 1014.8
20260502122000 10 215 1.6 6.4 0.00 0.13 0.05 92 1014.7
20260502121459 10 215 1.6 3.2 0.00 0.13 0.05 92 1014.6
20260502120500 10 215 0.0 3.2 0.00 0.13 0.05 92 1014.4
20260502115500 10 344 0.0 1.6 0.00 0.13 0.05 93 1014.3
20260502114959 10 340 0.0 1.6 0.00 0.13 0.05 93 1014.3
20260502113959 10 231 0.0 1.6 0.00 0.13 0.05 93 1014.2
20260502113459 10 231 0.0 1.6 0.00 0.13 0.05 93 1014.2
20260502112959 11 231 0.0 1.6 0.00 0.13 0.05 93 1014.2
20260502112459 11 239 0.0 1.6 0.00 0.13 0.05 93 1014.2
20260502111959 11 236 0.0 1.6 0.00 0.13 0.05 93 1014.4
20260502111000 11 236 1.6 3.2 0.00 0.13 0.05 93 1014.3
20260502110001 11 191 1.6 3.2 0.00 0.13 0.05 93 1014.1
20260502105459 11 191 1.6 4.8 0.00 0.13 0.05 93 1014.1
20260502104500 11 118 0.0 4.8 0.00 0.13 0.05 93 1013.9
20260502104000 11 230 0.0 0.0 0.00 0.13 0.05 93 1013.5
20260502103500 11 230 0.0 1.6 0.00 0.13 0.05 93 1014.2
20260502102959 11 230 0.0 1.6 0.00 0.13 0.05 93 1014.2
20260502102500 11 230 0.0 0.0 0.00 0.13 0.05 93 1013.6
20260502101959 11 230 1.6 3.2 0.00 0.13 0.05 93 1013.9
20260502101001 11 230 0.0 4.8 0.00 0.13 0.05 93 1014.4
20260502091500 12 230 0.0 0.0 0.03 0.13 0.05 93 1013.8
20260502090959 12 230 0.0 0.0 0.03 0.13 0.05 93 1014.3
20260502090500 12 230 0.0 1.6 0.03 0.13 0.05 93 1014.2
20260502071459 12 243 1.6 3.2 0.00 0.08 0.00 93 1014.1
20260502070959 12 243 1.6 4.8 0.00 0.08 0.00 93 1014.1
20260502070500 12 243 1.6 4.8 0.00 0.08 0.00 93 1014.5
20260502070001 13 243 1.6 3.2 0.00 0.08 0.00 93 1014.5
20260502065459 13 243 1.6 4.8 0.00 0.08 0.00 93 1014.5
20260502064959 13 243 0.0 4.8 0.00 0.08 0.00 94 1014.5
20260502064459 13 243 0.0 1.6 0.00 0.08 0.00 94 1014.7
20260502063959 13 243 0.0 1.6 0.00 0.08 0.00 93 1014.6
20260502063459 12 243 0.0 0.0 0.00 0.08 0.00 93 1014.5
20260502062959 12 243 1.6 1.6 0.00 0.08 0.00 93 1014.5
20260502061959 12 243 0.0 3.2 0.00 0.08 0.00 93 1014.4
20260502061000 12 243 0.0 1.6 0.00 0.08 0.00 93 1014.6
20260502060500 12 243 0.0 1.6 0.00 0.08 0.00 93 1014.6
20260502060001 13 243 0.0 1.6 0.00 0.08 0.00 93 1014.4
20260502055500 12 243 0.0 1.6 0.00 0.08 0.00 93 1014.5
20260502055000 13 243 0.0 0.0 0.00 0.08 0.00 93 1014.6
20260502054500 13 243 0.0 1.6 0.00 0.08 0.00 93 1014.4
20260502054000 13 243 0.0 1.6 0.00 0.08 0.00 93 1014.2
20260502053500 13 243 0.0 3.2 0.00 0.08 0.00 93 1014.3
20260502053000 13 243 1.6 3.2 0.00 0.08 0.00 93 1014.5
20260502052500 13 243 0.0 3.2 0.00 0.08 0.00 93 1014.4
20260502052001 13 243 0.0 1.6 0.00 0.08 0.00 93 1014.4
20260502051500 13 243 0.0 3.2 0.00 0.08 0.00 93 1014.4
20260502051000 13 243 1.6 4.8 0.00 0.08 0.00 92 1014.4
20260502050500 13 243 1.6 4.8 0.00 0.08 0.00 92 1014.3
20260502045501 13 243 1.6 4.8 0.00 0.08 0.08 93 1014.6
20260502045002 12 243 1.6 4.8 0.00 0.08 0.08 93 1014.5
20260502044501 12 243 1.6 3.2 0.00 0.08 0.08 93 1014.5
20260502044001 12 243 0.0 1.6 0.00 0.08 0.08 92 1014.4
20260502043501 12 243 0.0 0.0 0.00 0.08 0.08 92 1014.2
20260502043001 12 243 0.0 0.0 0.00 0.08 0.08 92 1014.2
20260502042501 12 243 0.0 0.0 0.00 0.08 0.08 92 1014.1
20260502042001 12 243 0.0 0.0 0.00 0.08 0.08 92 1014.2
20260502041501 12 243 0.0 0.0 0.00 0.08 0.08 92 1014.1
20260502041001 12 243 0.0 0.0 0.00 0.08 0.08 91 1014.1
20260502040501 12 243 0.0 0.0 0.00 0.08 0.08 91 1014.0
20260502040004 12 243 0.0 0.0 0.00 0.08 0.08 91 1014.0
20260502035501 12 243 0.0 0.0 0.00 0.08 0.08 91 1014.2
20260502035001 12 243 0.0 0.0 0.00 0.08 0.08 91 1014.2
20260502034501 12 243 0.0 0.0 0.00 0.08 0.08 91 1014.2
20260502034001 12 243 0.0 0.0 0.00 0.08 0.08 91 1014.2
20260502033502 13 243 0.0 0.0 0.00 0.08 0.08 91 1014.4
20260502033001 13 243 0.0 0.0 0.00 0.08 0.08 91 1014.4
20260502032502 13 243 1.6 3.2 0.00 0.08 0.08 91 1014.6
20260502032003 13 243 1.6 3.2 0.00 0.08 0.08 91 1014.6
20260502031501 13 243 0.0 3.2 0.00 0.08 0.08 91 1014.7
20260502030501 13 243 1.6 1.6 0.00 0.08 0.08 91 1014.8
20260502030004 13 243 1.6 3.2 0.03 0.08 0.08 90 1014.8
20260502025002 13 243 0.0 1.6 0.03 0.08 0.08 90 1014.7
20260502024502 13 243 0.0 1.6 0.03 0.08 0.08 90 1014.8
20260502024001 13 243 0.0 1.6 0.03 0.08 0.08 89 1014.8
20260502023502 13 243 0.0 1.6 0.05 0.08 0.08 89 1014.7
20260502023001 13 243 1.6 3.2 0.05 0.08 0.08 89 1014.9
20260502022502 13 243 1.6 3.2 0.08 0.08 0.08 89 1015.2
20260502022004 14 243 0.0 3.2 0.08 0.08 0.08 89 1015.2
20260502021502 14 243 0.0 0.0 0.08 0.08 0.08 88 1015.2
20260502020501 14 243 0.0 0.0 0.08 0.08 0.08 88 1015.2
20260502020002 14 243 0.0 1.6 0.05 0.05 0.05 88 1015.2
20260502015500 15 243 0.0 1.6 0.05 0.05 0.05 88 1015.2
20260502014500 15 243 0.0 1.6 0.05 0.05 0.05 87 1015.0
20260502014000 15 243 0.0 1.6 0.05 0.05 0.05 87 1015.0
20260502013500 15 243 0.0 1.6 0.03 0.03 0.03 86 1015.0
20260502013000 15 243 0.0 1.6 0.03 0.03 0.03 86 1015.0
20260502011500 14 243 0.0 0.0 0.00 0.00 0.00 84 1014.8
20260502011000 15 243 0.0 0.0 0.00 0.00 0.00 83 1014.6
20260502010501 14 243 0.0 0.0 0.00 0.00 0.00 83 1014.5
20260502005500 15 243 0.0 0.0 0.00 0.00 0.00 82 1014.2
20260502005000 15 243 0.0 0.0 0.00 0.00 0.00 81 1014.1
20260502004000 15 243 0.0 0.0 0.00 0.00 0.00 80 1014.0
20260502003500 15 243 0.0 0.0 0.00 0.00 0.00 81 1014.1
20260502002459 15 243 0.0 1.6 0.00 0.00 0.00 80 1014.1
20260502002002 15 243 0.0 1.6 0.00 0.00 0.00 80 1014.1
20260502001500 15 243 0.0 0.0 0.00 0.00 0.00 81 1014.1
20260502001000 15 243 0.0 1.6 0.00 0.00 0.00 80 1013.8
20260502000500 15 243 0.0 1.6 0.00 0.00 0.00 80 1013.9
20260502000004 15 243 0.0 0.0 0.00 0.00 0.00 80 1013.9
20260501235501 15 243 0.0 3.2 0.00 0.00 0.00 79 1013.8
20260501235002 15 243 1.6 3.2 0.00 0.00 0.00 78 1013.7
20260501234501 15 232 1.6 4.8 0.00 0.00 0.00 78 1013.6
20260501234001 16 232 1.6 4.8 0.00 0.00 0.00 77 1013.6
20260501233501 16 232 1.6 3.2 0.00 0.00 0.00 76 1013.7
20260501233001 16 232 1.6 4.8 0.00 0.00 0.00 76 1013.7
20260501232001 16 232 1.6 4.8 0.00 0.00 0.00 75 1013.7
20260501231501 16 232 1.6 4.8 0.00 0.00 0.00 74 1013.7
20260501231001 16 232 1.6 3.2 0.00 0.00 0.00 74 1013.6
20260501230502 16 232 1.6 3.2 0.00 0.00 0.00 73 1013.7
20260501230003 16 219 1.6 4.8 0.00 0.00 0.00 75 1013.6
20260501225459 16 219 0.0 4.8 0.00 0.00 0.00 75 1013.6
20260501225000 16 219 0.0 0.0 0.00 0.00 0.00 74 1013.6
20260501224500 16 219 1.6 4.8 0.00 0.00 0.00 74 1013.6
20260501224000 17 219 1.6 6.4 0.00 0.00 0.00 72 1013.6
20260501223500 17 219 1.6 6.4 0.00 0.00 0.00 70 1013.7
20260501223000 17 220 1.6 6.4 0.00 0.00 0.00 70 1013.8
20260501222000 17 255 1.6 3.2 0.00 0.00 0.00 71 1013.9
20260501221500 17 255 1.6 3.2 0.00 0.00 0.00 72 1013.9
20260501221000 17 255 1.6 4.8 0.00 0.00 0.00 70 1013.8
20260501220500 17 255 1.6 4.8 0.00 0.00 0.00 70 1013.7
20260501220000 17 255 1.6 4.8 0.00 0.00 0.00 69 1013.6
20260501215501 17 209 1.6 4.8 0.00 0.00 0.00 70 1013.6
20260501215000 17 209 1.6 4.8 0.00 0.00 0.00 68 1013.5
20260501214000 17 238 3.2 6.4 0.00 0.00 0.00 67 1013.2
20260501213500 17 233 3.2 11.3 0.00 0.00 0.00 65 1013.1
20260501212959 17 252 3.2 11.3 0.00 0.00 0.00 65 1013.1
20260501212459 17 252 1.6 6.4 0.00 0.00 0.00 64 1013.2
20260501212000 18 168 1.6 8.0 0.00 0.00 0.00 64 1013.2
20260501211500 17 153 1.6 6.4 0.00 0.00 0.00 66 1013.0
20260501211000 17 252 1.6 4.8 0.00 0.00 0.00 63 1013.1